Tracking 33057 objects as of 23-Jan-2026
HD Live streaming from Space Station
objects crossing your sky now

COSMOS 249 DEB *

Track COSMOS 249 DEB * now!
10-day predictions


NORAD ID: 3790
Int'l Code: 1968-091AX
Perigee: 586.5 km
Apogee: 1,643.5 km
Inclination: 63.0 °
Period: 107.4 minutes
Semi major axis: 7486 km
RCS: 0.0825 m2 (small)
Launch date: October 20, 1968
Source: Commonwealth of Independent States (former USSR) (CIS)
Launch site: TYURATAM MISSILE AND SPACE COMPLEX (TTMTR)

Note: This is SATELLITE DEBRIS
Your satellite tracking list
Your tracking list is empty




NASA's NSSDC Master Catalog

Two Line Element Set (TLE):
1 03790U 68091AX  26022.82595959  .00002616  00000-0  11036-2 0  9995
2 03790  63.0000 328.8280 0706040 302.5914  50.8815 13.40379577747991
Source of the keplerian elements: AFSPC